Temperature
12 12 12 12 12 12 12 12 11 11 11 11 11 11 11 10 10 10 10 10 11 11 10 10 10 10 10 10 11 11 11 11 11 11 11 11 11 11 11 11 11 11 11
12 12 12 12 12 12 11 11 11 11 11 11 11 10 10 10 10 10 10 10 10 10 10 10 10 10 10 10 10 10 10 10 11 11 11 11 11 11 11 11 11 11 10
12 12 11 11 11 11 11 11 10 11 11 10 10 10 10 10 10 9 9 9 9 10 10 10 9 9 10 10 10 10 10 10 10 10 10 10 10 10 10 10 10 10 10
11 11 11 11 11 11 11 10 10 10 10 10 10 10 10 10 9 9 9 9 9 9 9 9 9 9 9 9 9 9 9 9 10 10 10 10 10 10 10 10 10 10 10
11 11 11 10 10 10 10 10 10 10 10 10 10 10 9 9 9 9 9 9 9 9 9 9 9 9 9 9 9 9 9 9 9 9 9 9 9 9 9 9 9 9 9
11 10 10 10 10 10 10 10 9 9 9 9 9 9 9 9 9 8 8 8 8 8 8 8 8 9 9 9 9 9 8 8 8 9 9 9 9 9 9 9 9 9 9
10 10 10 10 10 10 9 9 9 9 9 9 9 8 8 8 8 8 8 8 8 8 8 8 8 8 8 8 8 8 8 8 8 8 8 8 8 8 8 8 8 8 8
10 10 10 10 9 9 9 9 9 9 8 8 8 7 7 8 8 8 8 8 8 8 8 8 8 7 7 7 7 8 8 8 8 8 8 8 8 8 8 8 8 8 8
10 10 9 9 9 9 9 9 8 8 8 8 7 7 7 7 7 7 7 7 7 7 7 7 7 7 7 7 7 7 7 7 7 7 7 7 7 7 7 7 8 7 8
9 9 9 9 9 9 9 8 8 8 8 7 7 7 7 7 6 6 7 7 7 7 7 7 7 6 6 6 6 6 7 7 7 7 7 7 7 7 7 7 7 7 7
9 9 9 9 9 8 8 8 8 8 7 7 7 7 7 7 6 6 6 6 6 6 6 6 6 6 6 6 6 6 6 6 6 6 7 7 7 7 7 7 7 7 7
9 9 9 9 8 8 8 8 8 7 7 7 7 7 6 6 6 6 6 6 6 6 6 6 6 6 6 5 6 6 6 6 6 6 6 6 6 6 6 6 6 6 6
9 9 9 8 8 8 8 7 7 7 7 7 6 6 6 6 6 6 5 5 5 5 5 5 5 5 5 5 5 6 6 6 6 6 6 6 6 6 6 6 6 5 5
9 9 8 8 8 8 7 7 7 7 6 6 6 6 6 6 6 5 5 5 4 4 5 5 5 5 5 5 5 5 5 5 5 5 5 5 5 5 5 5 5 5 5
8 8 8 8 8 7 7 7 7 6 6 6 6 6 6 5 5 5 5 5 4 4 4 4 5 5 5 5 5 5 5 5 5 5 5 5 5 5 5 5 5 5 5
8 8 8 8 7 7 7 7 6 6 6 6 6 5 5 5 5 5 5 5 4 4 4 4 4 4 4 4 4 4 5 5 5 5 5 5 5 5 5 4 5 5 5
7 7 7 7 7 7 7 6 6 6 6 6 5 5 5 5 5 5 4 4 4 4 4 4 4 4 4 4 4 4 4 4 4 4 4 4 4 4 4 4 4 4 4
7 7 7 7 7 7 6 6 6 6 5 5 5 5 5 5 5 4 4 4 4 4 4 4 4 4 4 4 4 4 4 4 4 4 4 4 4 4 4 4 4 4 4
6 6 6 6 6 6 6 6 6 5 5 5 5 5 5 5 5 4 4 4 4 4 4 4 4 4 4 4 4 4 4 4 4 4 4 4 4 4 4 4 4 4 4
6 6 6 6 6 6 6 5 5 5 5 5 5 5 4 4 4 4 4 4 4 4 4 3 3 3 3 3 3 3 3 3 3 3 3 3 3 3 4 3 3 3 3
5 5 5 5 5 5 5 5 5 5 4 4 4 4 4 4 4 4 4 4 4 4 3 3 3 3 3 3 3 3 3 3 3 3 3 3 3 3 3 3 3 3 3
5 5 5 5 5 5 5 5 4 4 4 4 4 4 4 4 4 4 4 4 4 3 3 3 3 3 3 3 3 3 3 3 2 2 2 2 2 2 2 2 3 3 3
4 4 4 4 4 4 4 4 4 4 4 4 4 4 4 4 4 4 4 4 3 3 3 3 3 3 3 3 3 3 2 2 2 2 2 2 2 2 2 2 2 2 2
4 4 4 4 4 4 4 4 4 4 3 3 3 3 3 3 4 4 3 3 3 3 3 3 3 3 3 2 2 2 2 2 2 1 1 1 2 2 2 2 2 2 2
3 3 3 3 3 4 4 3 3 3 3 3 3 3 3 3 3 3 3 3 3 3 3 2 2 2 2 2 2 2 2 1 1 1 1 1 1 1 2 2 1 1 1
3 3 3 3 3 3 3 3 3 3 3 3 3 3 3 3 3 3 3 3 2 2 2 2 2 2 2 2 2 1 1 1 1 1 1 1 1 1 1 1 1 1 1
Wind_Speed
2 2 1 1 1 0 0 1 1 1 1 1 1 2 2 2 2 2 2 2 4 5 6 7 8 8 8 9 9 9 10 10 10 10 10 10 11 10 11 11 10 10 11
2 2 1 1 1 1 1 1 1 1 1 1 2 2 2 2 2 3 3 2 2 4 6 7 8 9 9 9 10 10 10 10 11 11 11 11 11 11 11 12 12 11 12
3 2 1 1 1 1 1 0 1 1 1 1 2 2 2 2 3 3 3 3 3 3 5 7 8 9 9 10 10 10 10 11 11 11 11 11 11 12 12 12 12 13 13
3 3 2 1 1 1 1 0 1 1 1 2 2 2 2 2 3 3 3 3 3 4 4 5 7 9 9 10 10 10 11 11 11 11 11 11 11 12 13 12 11 13 14
4 3 2 1 1 1 1 0 1 1 2 2 2 2 2 2 2 2 3 3 3 4 5 5 6 8 9 10 10 10 11 12 12 12 12 12 11 11 12 11 12 12 13
3 3 2 1 1 1 1 1 1 1 1 2 2 2 3 2 2 2 3 3 4 5 5 6 6 6 8 10 10 11 12 12 12 13 12 12 11 11 12 12 12 12 13
3 3 2 2 2 2 1 1 1 1 1 1 1 2 2 2 2 2 3 3 4 5 6 6 6 6 6 8 9 11 12 13 13 13 13 13 12 11 11 12 12 12 12
4 3 3 2 2 2 2 1 1 1 1 1 1 1 2 2 2 3 3 4 5 4 5 6 7 7 7 7 7 10 11 12 13 13 12 12 12 10 11 11 12 12 12
4 3 3 3 3 2 2 2 2 2 2 2 2 2 2 2 4 3 3 4 4 5 5 5 6 7 8 7 7 8 10 12 12 13 12 11 11 11 10 10 10 11 11
3 3 3 3 3 3 3 3 3 3 3 2 2 3 3 3 3 3 3 4 5 5 5 5 6 7 7 7 7 9 11 11 12 12 11 11 11 11 10 11 10 10 11
3 2 3 3 3 3 3 3 3 4 4 4 3 2 3 3 4 4 5 5 5 5 5 5 5 6 6 7 7 9 11 11 10 11 11 11 10 11 11 10 10 10 10
2 2 2 2 3 3 3 3 4 4 4 4 3 3 3 3 3 4 5 6 6 5 6 5 5 5 6 7 8 9 11 10 10 10 9 10 10 10 9 10 9 10 10
2 3 2 3 3 3 3 3 3 4 4 4 4 4 4 4 3 4 4 5 6 6 5 5 5 5 6 7 8 10 10 8 8 8 9 10 10 10 10 9 9 10 11
3 3 3 3 3 3 2 3 3 3 3 4 4 4 3 4 3 3 4 4 5 5 5 6 5 5 6 7 8 10 7 8 8 8 8 9 9 9 9 9 9 10 11
2 2 3 4 3 3 3 3 3 3 3 4 4 4 4 3 3 3 4 4 4 5 5 6 5 6 6 6 8 8 8 9 9 9 9 9 9 9 9 9 9 10 11
1 2 3 3 3 3 3 3 3 3 3 3 3 4 4 3 3 3 3 4 4 5 5 5 5 6 6 6 8 8 8 10 9 10 10 10 10 10 10 9 9 10 11
2 2 2 3 3 3 3 3 3 3 3 3 3 4 4 4 3 3 3 4 4 4 5 5 5 6 7 7 7 7 7 7 7 9 10 10 10 10 10 9 10 11 12
2 2 2 2 3 3 3 3 3 3 4 4 3 4 4 3 4 4 3 4 4 4 4 5 5 5 6 6 7 7 7 6 6 9 11 11 11 10 11 10 10 11 13
2 2 2 2 3 3 3 4 4 4 4 4 4 4 4 4 4 4 4 4 3 3 3 4 5 5 5 5 6 6 7 6 7 8 10 10 10 11 11 11 11 12 13
2 2 2 2 3 3 3 3 4 4 3 3 4 4 4 4 4 4 4 4 3 3 3 3 3 4 4 5 5 5 6 6 6 7 8 8 9 11 11 11 11 12 13
1 1 2 2 2 2 3 3 3 3 3 3 3 3 3 4 4 4 3 3 3 2 2 2 3 4 4 5 5 5 5 5 6 5 7 7 7 7 8 9 10 12 13
1 1 2 2 2 2 2 3 2 3 3 3 3 3 3 3 3 4 3 3 2 2 2 2 3 3 5 5 5 5 5 5 4 5 6 7 6 6 7 7 11 13 13
1 2 2 2 2 2 2 3 3 3 3 3 3 3 2 2 3 2 2 2 2 4 4 3 3 4 4 4 5 5 5 5 5 5 6 5 6 6 7 8 11 13 14
1 1 2 2 2 2 2 2 2 3 2 2 3 3 3 2 2 1 1 1 2 3 3 3 2 3 4 4 4 4 4 5 4 4 5 4 5 6 7 7 10 12 14
1 2 2 2 2 2 2 2 1 1 1 2 2 2 2 2 1 1 0 0 1 2 4 4 4 4 5 5 4 3 3 4 4 4 4 3 4 6 6 5 7 11 13
2 1 1 2 2 2 1 1 1 1 2 1 1 1 1 1 1 1 1 1 0 1 2 3 4 4 4 4 5 4 3 3 3 3 4 4 4 5 4 4 6 8 10
Wind_Direction
172 173 173 170 187 199 232 306 312 337 318 320 309 306 305 304 301 303 323 337 314 313 311 310 308 304 302 300 301 297 297 294 290 288 290 284 271 262 261 263 265 266 268
179 183 185 185 199 226 265 280 314 317 315 315 306 303 303 310 308 304 307 326 320 313 312 312 311 309 307 305 303 303 301 300 296 293 290 291 283 271 267 265 265 265 267
189 192 196 201 213 228 240 276 315 310 314 309 301 308 309 309 306 308 309 312 318 319 313 314 314 312 312 309 307 306 307 302 301 299 296 290 291 280 272 272 268 266 267
195 198 202 210 224 213 200 217 303 309 309 307 309 308 304 304 302 312 308 308 315 318 322 317 311 310 312 311 310 309 308 305 302 300 298 294 291 290 279 274 273 273 268
200 206 211 212 210 212 207 224 286 298 308 317 312 301 298 293 301 304 304 311 319 318 315 321 314 308 307 307 306 306 306 305 301 300 298 293 291 290 287 279 280 279 277
202 207 208 206 206 214 224 237 273 299 306 317 316 310 298 292 288 298 305 306 315 319 315 317 315 312 304 302 304 308 308 307 302 300 301 293 287 286 286 286 284 284 283
200 202 205 202 215 222 234 227 247 287 342 340 323 318 299 276 278 292 299 302 313 319 318 320 317 313 307 305 304 309 310 310 307 305 304 299 291 287 287 292 289 288 290
200 204 210 210 217 226 226 220 212 246 302 298 297 307 306 279 276 297 303 306 310 318 319 321 319 316 315 313 315 313 311 311 309 306 307 304 296 296 295 296 298 295 293
205 209 213 213 216 222 225 224 218 233 240 268 276 272 275 277 306 279 296 302 311 316 319 322 324 322 319 316 316 321 321 317 313 309 305 304 303 301 301 302 302 301 299
205 207 215 216 219 224 228 229 228 238 228 241 252 262 276 280 279 288 286 303 314 318 322 324 321 321 321 319 320 321 322 319 314 313 310 307 302 301 302 304 304 305 307
205 204 212 216 220 229 232 234 234 236 234 242 246 254 267 274 269 271 291 306 314 319 320 318 316 319 321 321 320 326 327 322 317 317 317 316 311 307 308 313 316 316 315
206 200 218 227 229 231 232 235 239 242 244 250 256 254 261 268 270 275 285 298 305 310 313 311 313 320 322 322 325 329 327 325 321 322 326 329 327 322 321 319 325 326 324
215 212 221 229 230 234 234 235 238 247 251 252 255 259 263 268 274 275 279 292 300 308 308 309 315 319 322 323 327 330 328 331 335 339 340 336 330 328 324 328 332 329 329
228 224 223 230 231 233 234 232 233 241 246 251 260 266 270 272 271 270 272 281 294 305 309 308 314 320 323 324 333 333 337 347 344 341 339 337 337 338 334 334 331 328 327
240 229 228 222 223 224 232 233 235 242 248 251 259 265 271 275 272 276 276 274 277 294 302 306 312 320 327 330 338 339 341 348 348 348 345 343 341 341 338 335 332 329 325
225 226 227 223 219 222 229 230 232 241 246 254 264 269 274 278 278 276 275 275 276 283 289 304 311 316 326 328 336 338 341 345 348 348 347 343 340 336 334 332 330 327 325
217 222 224 231 225 223 229 231 234 235 242 255 262 264 273 280 280 281 279 277 278 282 285 300 312 320 325 329 332 338 339 341 346 349 346 344 342 339 336 333 329 328 327
217 222 225 233 238 231 226 229 234 233 239 249 258 262 270 278 278 277 274 274 274 278 283 294 307 318 322 326 330 332 338 342 343 346 344 343 341 341 341 339 338 336 334
229 231 230 234 244 243 234 234 234 234 241 247 254 260 266 269 272 278 275 274 278 280 280 284 303 316 319 326 329 332 335 337 339 341 343 345 347 350 343 339 339 338 336
242 245 243 243 246 248 244 244 232 233 243 251 256 259 264 264 268 273 274 278 282 283 288 291 305 313 317 323 325 328 330 333 333 337 340 338 342 346 347 343 340 339 338
254 251 250 246 245 248 249 254 237 241 243 249 256 260 265 278 289 288 286 284 284 287 295 301 307 316 324 325 320 317 319 324 327 337 333 332 336 339 345 348 347 343 341
256 246 245 245 247 257 281 270 256 247 242 245 254 262 266 266 283 295 302 317 310 275 270 281 295 299 309 315 314 315 318 324 322 338 330 327 334 333 342 346 349 348 346
273 255 258 255 259 272 280 271 253 250 246 246 247 251 263 276 278 277 299 338 344 336 316 285 275 292 303 309 310 313 317 319 314 325 327 320 332 328 334 339 342 343 345
287 278 270 272 272 272 275 271 253 242 251 259 256 255 257 269 284 291 309 343 350 351 335 325 311 317 325 321 312 307 308 318 318 337 342 320 325 322 322 327 340 343 343
290 295 284 274 273 274 267 267 266 237 237 263 272 270 262 262 310 357 101 34 7 7 28 36 25 19 10 3 359 351 342 338 333 337 351 330 321 321 315 320 335 341 340
287 296 289 284 276 275 277 262 260 228 227 247 270 276 289 305 341 355 222 201 245 338 5 21 25 20 15 15 13 4 342 334 333 331 354 337 328 335 322 319 331 334 336
Height
1528 1528 1528 1527 1527 1526 1525 1525 1524 1523 1522 1521 1520 1519 1518 1518 1517 1515 1514 1513 1512 1511 1510 1509 1508 1507 1506 1505 1504 1503 1502 1502 1501 1500 1499 1499 1498 1497 1497 1497 1496 1496 1495
1527 1526 1526 1525 1525 1525 1524 1523 1523 1522 1521 1520 1519 1518 1517 1516 1515 1514 1513 1511 1509 1508 1507 1506 1505 1504 1503 1502 1501 1500 1499 1498 1497 1496 1495 1494 1494 1493 1492 1492 1491 1491 1491
1525 1525 1524 1524 1523 1523 1522 1522 1521 1520 1519 1518 1517 1517 1515 1514 1513 1512 1511 1509 1508 1506 1505 1503 1502 1501 1500 1499 1497 1496 1495 1494 1493 1492 1491 1490 1489 1488 1487 1487 1487 1487 1486
1523 1523 1523 1522 1522 1521 1521 1520 1519 1519 1518 1517 1516 1515 1514 1513 1512 1511 1509 1508 1506 1504 1503 1501 1499 1498 1497 1495 1494 1492 1491 1490 1489 1488 1487 1486 1485 1484 1483 1482 1482 1482 1481
1521 1521 1521 1520 1520 1519 1519 1518 1518 1517 1516 1515 1514 1513 1512 1511 1510 1509 1508 1506 1504 1502 1501 1499 1497 1495 1494 1492 1491 1489 1488 1486 1485 1484 1483 1482 1481 1479 1479 1478 1477 1477 1476
1519 1519 1519 1518 1518 1518 1517 1517 1516 1516 1515 1514 1513 1512 1511 1509 1508 1507 1506 1505 1503 1501 1499 1497 1495 1493 1491 1489 1487 1485 1484 1482 1481 1480 1478 1477 1476 1475 1475 1473 1473 1472 1472
1517 1517 1516 1516 1516 1516 1515 1515 1514 1514 1513 1512 1511 1510 1509 1508 1507 1506 1504 1503 1501 1499 1497 1495 1492 1490 1488 1486 1484 1482 1480 1478 1477 1476 1474 1472 1471 1470 1470 1469 1468 1467 1467
1514 1514 1514 1514 1513 1513 1513 1513 1512 1511 1511 1511 1510 1509 1508 1508 1506 1504 1502 1500 1499 1497 1495 1492 1490 1488 1485 1483 1481 1478 1476 1474 1473 1471 1470 1468 1467 1466 1465 1465 1463 1462 1462
1512 1512 1512 1511 1511 1511 1511 1510 1510 1510 1509 1509 1509 1509 1508 1506 1504 1502 1500 1499 1497 1494 1492 1490 1488 1485 1483 1480 1478 1475 1473 1471 1469 1467 1466 1464 1463 1462 1461 1460 1459 1458 1457
1509 1509 1509 1509 1509 1509 1508 1508 1508 1508 1507 1507 1506 1506 1506 1505 1503 1500 1499 1497 1495 1492 1490 1488 1485 1483 1480 1477 1475 1472 1469 1467 1465 1463 1462 1460 1459 1458 1457 1456 1455 1454 1453
1507 1507 1507 1507 1506 1506 1506 1505 1505 1505 1505 1505 1504 1503 1503 1502 1501 1499 1496 1494 1493 1491 1488 1485 1483 1480 1478 1475 1472 1469 1466 1464 1462 1460 1458 1457 1455 1454 1453 1452 1451 1450 1449
1504 1503 1504 1504 1504 1504 1503 1503 1503 1502 1502 1502 1502 1501 1500 1499 1498 1497 1495 1492 1490 1488 1486 1483 1481 1478 1475 1472 1470 1467 1464 1461 1459 1457 1455 1454 1452 1451 1449 1449 1447 1446 1445
1501 1501 1501 1501 1501 1501 1501 1501 1500 1500 1500 1500 1499 1498 1498 1497 1496 1495 1493 1490 1488 1486 1483 1481 1479 1476 1473 1470 1468 1465 1462 1459 1457 1455 1453 1451 1449 1447 1446 1445 1444 1443 1441
1498 1498 1499 1499 1499 1499 1498 1498 1498 1497 1497 1497 1496 1496 1495 1494 1493 1492 1491 1489 1486 1484 1482 1480 1477 1475 1472 1469 1466 1463 1460 1457 1455 1452 1451 1449 1447 1445 1444 1442 1441 1439 1437
1495 1496 1496 1496 1496 1496 1496 1495 1495 1495 1494 1494 1494 1493 1492 1491 1490 1489 1488 1487 1486 1482 1480 1477 1475 1473 1470 1468 1465 1462 1459 1456 1454 1451 1449 1447 1445 1443 1441 1440 1438 1436 1434
1492 1493 1493 1493 1493 1493 1493 1493 1493 1492 1492 1492 1491 1490 1489 1488 1487 1486 1485 1484 1483 1481 1478 1476 1474 1472 1469 1467 1464 1461 1458 1455 1452 1450 1448 1445 1443 1441 1439 1437 1435 1433 1430
1489 1489 1490 1490 1490 1490 1490 1490 1490 1490 1489 1489 1488 1487 1487 1486 1484 1483 1482 1481 1480 1479 1476 1474 1472 1470 1468 1465 1463 1460 1457 1454 1451 1449 1446 1444 1441 1439 1436 1434 1431 1429 1427
1486 1487 1487 1487 1487 1487 1488 1488 1487 1487 1486 1486 1485 1485 1484 1483 1482 1481 1479 1478 1477 1476 1475 1472 1470 1468 1466 1464 1461 1459 1456 1453 1450 1447 1445 1442 1439 1436 1433 1431 1428 1426 1423
1483 1484 1484 1484 1484 1484 1485 1485 1485 1484 1484 1483 1482 1482 1481 1480 1479 1478 1477 1476 1475 1474 1473 1471 1468 1467 1464 1462 1460 1457 1455 1452 1449 1446 1443 1440 1437 1434 1431 1428 1425 1423 1420
1480 1481 1481 1481 1481 1481 1482 1482 1482 1481 1481 1480 1479 1479 1478 1477 1477 1476 1475 1474 1473 1471 1470 1469 1467 1465 1463 1461 1459 1456 1453 1450 1447 1444 1441 1438 1435 1432 1429 1425 1423 1420 1417
1478 1478 1478 1478 1478 1478 1479 1479 1479 1478 1478 1477 1477 1476 1475 1475 1475 1474 1473 1472 1471 1469 1468 1467 1465 1463 1462 1459 1457 1454 1452 1449 1446 1443 1440 1436 1433 1430 1427 1423 1420 1417 1415
1475 1475 1475 1475 1475 1475 1476 1476 1476 1475 1475 1474 1474 1473 1473 1473 1472 1472 1471 1470 1469 1468 1467 1465 1464 1462 1460 1459 1456 1454 1451 1447 1444 1442 1439 1435 1432 1429 1425 1422 1418 1415 1412
1473 1473 1473 1472 1472 1472 1473 1473 1473 1472 1472 1472 1471 1471 1471 1470 1470 1469 1469 1468 1467 1466 1466 1465 1463 1461 1459 1457 1455 1453 1450 1447 1444 1441 1438 1434 1431 1427 1424 1420 1417 1414 1411
1470 1470 1470 1470 1470 1470 1470 1470 1470 1470 1469 1469 1469 1469 1468 1468 1468 1467 1466 1466 1465 1464 1463 1463 1461 1460 1458 1456 1454 1452 1449 1446 1443 1440 1437 1434 1430 1427 1423 1420 1416 1413 1409
1468 1468 1468 1467 1467 1467 1467 1467 1467 1467 1467 1466 1466 1466 1466 1466 1466 1465 1464 1463 1463 1462 1461 1461 1459 1458 1457 1455 1453 1451 1448 1445 1442 1439 1437 1433 1429 1426 1422 1419 1416 1412 1408
1465 1465 1465 1465 1465 1464 1464 1464 1464 1464 1464 1464 1464 1463 1463 1463 1463 1463 1462 1462 1461 1460 1459 1459 1458 1456 1455 1454 1452 1450 1447 1445 1442 1439 1436 1433 1430 1426 1422 1419 1415 1411 1407